Hourly Weather Barra do Pirai

Today, 1 October, Thursday

Time Temperature Precipitation Wind Pressure Humidity
00:00 +24°C° 0 mm 1 mps 727 mmHg 75%
01:00 +24°C° 0 mm 1 mps 727 mmHg 76%
02:00 +24°C° 0 mm 1 mps 727 mmHg 78%
03:00 +23°C° 0 mm 1 mps 726 mmHg 79%
04:00 +23°C° 0 mm 1 mps 727 mmHg 80%
05:00 +23°C° 0 mm 1 mps 727 mmHg 82%
06:00 +23°C° 0 mm 1 mps 727 mmHg 83%
07:00 +26°C° 0 mm 2 mps 727 mmHg 74%
08:00 +28°C° 0 mm 2 mps 728 mmHg 64%
09:00 +31°C° 0 mm 2 mps 728 mmHg 54%
10:00 +34°C° 0 mm 2 mps 727 mmHg 46%
11:00 +37°C° 0 mm 2 mps 727 mmHg 39%
12:00 +39°C° 0 mm 2 mps 727 mmHg 31%
13:00 +39°C° 0 mm 3 mps 726 mmHg 29%
14:00 +40°C° 0 mm 3 mps 725 mmHg 27%
15:00 +40°C° 0 mm 3 mps 725 mmHg 24%
16:00 +37°C° 0 mm 2 mps 725 mmHg 31%
17:00 +34°C° 0 mm 2 mps 725 mmHg 38%
18:00 +31°C° 0 mm 2 mps 724 mmHg 45%
19:00 +30°C° 0 mm 2 mps 725 mmHg 48%
20:00 +29°C° 0 mm 2 mps 725 mmHg 50%
21:00 +28°C° 0 mm 2 mps 726 mmHg 52%
22:00 +27°C° 0 mm 2 mps 726 mmHg 53%
23:00 +26°C° 0 mm 2 mps 726 mmHg 55%

Tomorrow, 2 October, Friday

Time Temperature Precipitation Wind Pressure Humidity
00:00 +26°C° 0 mm 2 mps 725 mmHg 57%
01:00 +25°C° 0 mm 2 mps 725 mmHg 58%
02:00 +25°C° 0 mm 2 mps 725 mmHg 59%
03:00 +25°C° 0 mm 2 mps 725 mmHg 60%
04:00 +24°C° 0 mm 2 mps 725 mmHg 61%
05:00 +24°C° 0 mm 2 mps 725 mmHg 62%
06:00 +24°C° 0 mm 2 mps 726 mmHg 64%
07:00 +26°C° 0 mm 2 mps 726 mmHg 57%
08:00 +29°C° 0 mm 2 mps 726 mmHg 50%
09:00 +32°C° 0 mm 2 mps 727 mmHg 44%
10:00 +35°C° 0 mm 2 mps 727 mmHg 38%
11:00 +38°C° 0 mm 2 mps 726 mmHg 32%
12:00 +40°C° 0 mm 3 mps 726 mmHg 27%
13:00 +40°C° 0 mm 3 mps 726 mmHg 25%
14:00 +42°C° 0 mm 3 mps 725 mmHg 23%
15:00 +42°C° 0 mm 3 mps 725 mmHg 20%
16:00 +38°C° 0 mm 2 mps 725 mmHg 27%
17:00 +35°C° 0 mm 2 mps 725 mmHg 33%
18:00 +31°C° 0 mm 2 mps 724 mmHg 40%
19:00 +30°C° 0 mm 2 mps 725 mmHg 42%
20:00 +29°C° 0 mm 1 mps 725 mmHg 44%
21:00 +28°C° 0 mm 1 mps 726 mmHg 47%
22:00 +27°C° 0 mm 1 mps 726 mmHg 49%
23:00 +26°C° 0 mm 1 mps 726 mmHg 51%

Day after tomorrow, 3 October, Saturday

Time Temperature Precipitation Wind Pressure Humidity
00:00 +26°C° 0 mm 1 mps 726 mmHg 52%
01:00 +25°C° 0 mm 1 mps 725 mmHg 53%
02:00 +25°C° 0 mm 1 mps 725 mmHg 54%
03:00 +24°C° 0 mm 1 mps 724 mmHg 55%
04:00 +24°C° 0 mm 1 mps 725 mmHg 57%
05:00 +24°C° 0 mm 1 mps 726 mmHg 60%
06:00 +21°C° 0 mm 0 mps 726 mmHg 62%
07:00 +26°C° 0 mm 1 mps 727 mmHg 58%
08:00 +28°C° 0 mm 1 mps 727 mmHg 55%
09:00 +30°C° 0 mm 2 mps 728 mmHg 52%
10:00 +31°C° 0 mm 2 mps 728 mmHg 51%
11:00 +33°C° 0 mm 3 mps 728 mmHg 49%
12:00 +34°C° 0 mm 3 mps 728 mmHg 48%
13:00 +33°C° 0 mm 3 mps 727 mmHg 53%
14:00 +32°C° 0 mm 4 mps 727 mmHg 58%
15:00 +30°C° 0 mm 4 mps 726 mmHg 62%
16:00 +28°C° 0 mm 4 mps 726 mmHg 70%
17:00 +26°C° 0 mm 3 mps 727 mmHg 78%
18:00 +24°C° 0 mm 3 mps 727 mmHg 86%
19:00 +24°C° 0 mm 3 mps 728 mmHg 89%
20:00 +24°C° 0 mm 2 mps 728 mmHg 91%
21:00 +23°C° 0 mm 2 mps 729 mmHg 93%
22:00 +23°C° 0.1 mm 1 mps 729 mmHg 94%
23:00 +23°C° 0.1 mm 1 mps 729 mmHg 94%

4 October, Sunday

Time Temperature Precipitation Wind Pressure Humidity
00:00 +23°C° 0.1 mm 1 mps 730 mmHg 95%
01:00 +23°C° 0.1 mm 1 mps 729 mmHg 95%
02:00 +23°C° 0.1 mm 1 mps 729 mmHg 95%
03:00 +21°C° 0.1 mm 0 mps 729 mmHg 95%
04:00 +23°C° 0.2 mm 1 mps 729 mmHg 95%
05:00 +23°C° 0.2 mm 1 mps 729 mmHg 96%
06:00 +23°C° 0.2 mm 1 mps 729 mmHg 96%
07:00 +23°C° 0.2 mm 2 mps 730 mmHg 94%
08:00 +23°C° 0.2 mm 2 mps 730 mmHg 92%
09:00 +24°C° 0.2 mm 2 mps 730 mmHg 90%
10:00 +25°C° 0.1 mm 2 mps 730 mmHg 85%
11:00 +26°C° 0.1 mm 2 mps 730 mmHg 81%
12:00 +27°C° 0.1 mm 2 mps 730 mmHg 76%
13:00 +27°C° 0 mm 3 mps 729 mmHg 74%
14:00 +27°C° 0 mm 3 mps 729 mmHg 73%
15:00 +27°C° 0 mm 3 mps 728 mmHg 72%
16:00 +26°C° 0 mm 3 mps 728 mmHg 78%
17:00 +24°C° 0 mm 2 mps 729 mmHg 84%
18:00 +23°C° 0 mm 2 mps 729 mmHg 90%
19:00 +23°C° 0 mm 2 mps 729 mmHg 92%
20:00 +21°C° 0 mm 2 mps 729 mmHg 93%
21:00 +22°C° 0 mm 1 mps 730 mmHg 94%
22:00 +22°C° 0 mm 1 mps 730 mmHg 94%
23:00 +22°C° 0 mm 1 mps 729 mmHg 94%

5 October, Monday

Time Temperature Precipitation Wind Pressure Humidity
00:00 +20°C° 0 mm 0 mps 729 mmHg 94%
01:00 +20°C° 0 mm 0 mps 729 mmHg 94%
02:00 +20°C° 0 mm 0 mps 728 mmHg 95%
03:00 +20°C° 0 mm 0 mps 728 mmHg 95%
04:00 +20°C° 0 mm 0 mps 728 mmHg 94%
05:00 +20°C° 0 mm 0 mps 728 mmHg 93%
06:00 +22°C° 0 mm 1 mps 728 mmHg 92%
07:00 +24°C° 0 mm 2 mps 728 mmHg 83%
08:00 +26°C° 0 mm 3 mps 728 mmHg 74%
09:00 +28°C° 0 mm 4 mps 728 mmHg 65%
10:00 +30°C° 0 mm 4 mps 727 mmHg 59%
11:00 +32°C° 0 mm 4 mps 727 mmHg 53%
12:00 +34°C° 0 mm 4 mps 726 mmHg 48%
13:00 +35°C° 0 mm 4 mps 726 mmHg 46%
14:00 +36°C° 0 mm 4 mps 725 mmHg 44%
15:00 +36°C° 0 mm 4 mps 724 mmHg 42%
16:00 +34°C° 0 mm 3 mps 724 mmHg 53%
17:00 +30°C° 0 mm 2 mps 724 mmHg 63%
18:00 +27°C° 0 mm 2 mps 724 mmHg 73%
19:00 +26°C° 0 mm 1 mps 724 mmHg 77%
20:00 +25°C° 0 mm 1 mps 724 mmHg 80%
21:00 +25°C° 0 mm 1 mps 725 mmHg 83%
22:00 +24°C° 0 mm 2 mps 724 mmHg 81%
23:00 +24°C° 0 mm 2 mps 724 mmHg 79%

6 October, Tuesday

Time Temperature Precipitation Wind Pressure Humidity
00:00 +24°C° 0 mm 3 mps 723 mmHg 78%
01:00 +24°C° 0 mm 3 mps 723 mmHg 77%
02:00 +24°C° 0 mm 3 mps 722 mmHg 77%
03:00 +22°C° 0 mm 3 mps 722 mmHg 77%
04:00 +23°C° 0 mm 2 mps 722 mmHg 77%
05:00 +23°C° 0 mm 2 mps 722 mmHg 77%
06:00 +21°C° 0 mm 2 mps 722 mmHg 77%
07:00 +26°C° 0 mm 2 mps 723 mmHg 65%
08:00 +29°C° 0 mm 1 mps 724 mmHg 54%
09:00 +32°C° 0 mm 1 mps 724 mmHg 43%
10:00 +34°C° 0 mm 1 mps 724 mmHg 37%
11:00 +37°C° 0 mm 1 mps 724 mmHg 32%
12:00 +40°C° 0 mm 1 mps 724 mmHg 27%
13:00 +39°C° 0 mm 2 mps 723 mmHg 31%
14:00 +38°C° 0 mm 2 mps 723 mmHg 36%
15:00 +37°C° 0 mm 3 mps 722 mmHg 40%
16:00 +33°C° 0 mm 3 mps 722 mmHg 56%
17:00 +28°C° 0 mm 2 mps 722 mmHg 72%
18:00 +24°C° 0 mm 2 mps 722 mmHg 87%
19:00 +24°C° 0 mm 2 mps 723 mmHg 89%
20:00 +23°C° 0 mm 1 mps 724 mmHg 91%
21:00 +23°C° 0 mm 1 mps 724 mmHg 93%
22:00 +21°C° 0 mm 0 mps 725 mmHg 93%
23:00 +21°C° 0 mm 0 mps 725 mmHg 92%
Show more